Stations météo

réclame
Mon MeteoGroup
Falsterbo A, Suède (2615): Température de l'air & dewpoint: 02.08.2020 22:00:00 - 08.08.2020 22:00:00 (CEST)Falsterbo A, Suède (2615): Vitesse du vent & gusts: 02.08.2020 22:00:00 - 08.08.2020 22:00:00 (CEST)Falsterbo A, Suède (2615): Direction du vent: 02.08.2020 22:00:00 - 08.08.2020 22:00:00 (CEST)Falsterbo A, Suède (2615): reduced air pressure: 02.08.2020 22:00:00 - 08.08.2020 22:00:00 (CEST)Falsterbo A, Suède (2615): visibility: 02.08.2020 22:00:00 - 08.08.2020 22:00:00 (CEST)Falsterbo A, Suède (2615): Quantités de précipitations: 02.08.2020 22:00:00 - 08.08.2020 22:00:00 (CEST)
Date & Time tt [°C] td [°C] ff [km/h] ff [knt] fx [km/h] fx [knt] dd ppp [hPa] vv [km] rr [mm]
08.08.2020 22:00:00 20,6 14,0 16 9 20 11 NNE 1020,7 17 0,0
08.08.2020 21:00:00 21,0 17,8 13 7 15 8 NNE 1020,6 18 0,0
08.08.2020 20:00:00 23,5 20,0 4 2 13 7 NW 1020,5 29 0,0
08.08.2020 19:00:00 24,0 20,5 9 5 12 7 NW 1020,4 27 0,0
08.08.2020 18:00:00 25,8 20,4 9 5 11 6 WSW 1020,2 26 0,0
08.08.2020 17:00:00 28,0 17,8 5 3 8 4 NNW 1020,4 26 0,0
08.08.2020 16:00:00 26,9 18,7 5 3 10 6 NNW 1020,7 28 0,0
08.08.2020 15:00:00 26,0 18,4 7 4 11 6 NW 1021,0 31 0,0
08.08.2020 14:00:00 25,1 17,8 7 4 13 7 NW 1021,3 27 0,0
08.08.2020 13:00:00 22,4 17,3 10 5 14 7 NW 1021,6 28 0,0
08.08.2020 12:00:00 22,8 17,5 9 5 14 8 NNW 1021,7 29 0,0
08.08.2020 11:00:00 21,5 17,3 12 6 18 10 N 1021,8 12 0,0
08.08.2020 10:00:00 21,5 17,7 16 8 18 10 N 1021,9 - 0,0
08.08.2020 09:00:00 20,5 16,7 9 5 15 8 N 1022,0 1,9 0,0
08.08.2020 08:00:00 20,1 16,3 10 6 13 7 N 1022,0 - 0,0
08.08.2020 07:00:00 18,0 15,8 8 4 10 6 N 1021,9 4,3 0,0
08.08.2020 06:00:00 16,6 14,4 7 4 11 6 ENE 1021,8 4,5 0,0
08.08.2020 05:00:00 16,5 14,1 - - 13 7 - 1021,8 4,9 0,0
08.08.2020 04:00:00 16,9 13,8 10 6 14 8 ENE 1022,0 1,6 0,0
08.08.2020 03:00:00 16,8 13,7 9 5 10 6 NNE 1022,3 48 0,0
08.08.2020 02:00:00 17,2 13,3 7 4 14 7 NNE 1022,9 13 0,0
08.08.2020 01:00:00 18,1 13,4 12 6 21 12 E 1023,1 50 0,0
08.08.2020 00:00:00 18,4 12,8 14 7 20 11 E 1023,2 50 0,0
07.08.2020 23:00:00 18,5 13,4 13 7 19 10 E 1023,4 42 0,0
07.08.2020 22:00:00 19,4 13,6 16 8 20 11 E 1023,4 44 0,0
07.08.2020 21:00:00 20,4 15,2 13 7 27 14 E 1023,2 50 0,0
07.08.2020 20:00:00 21,4 15,5 21 11 29 16 ESE 1023,2 50 0,0
07.08.2020 19:00:00 22,5 14,3 24 13 34 19 ESE 1023,5 50 0,0
07.08.2020 18:00:00 23,5 14,5 23 12 30 16 ESE 1023,6 42 0,0
07.08.2020 17:00:00 23,9 16,2 16 9 21 11 ESE 1024,0 30 0,0
07.08.2020 16:00:00 23,4 16,4 16 8 22 12 ESE 1024,3 40 0,0
07.08.2020 15:00:00 22,8 17,0 16 9 22 12 ESE 1024,6 30 0,0
07.08.2020 14:00:00 23,7 17,9 17 9 23 12 ESE 1024,8 18 0,0
07.08.2020 13:00:00 22,8 17,0 18 10 24 13 ESE 1024,8 36 0,0
07.08.2020 12:00:00 23,3 18,0 18 10 23 12 ESE 1025,1 32 0,0
07.08.2020 11:00:00 22,4 17,7 19 11 24 13 ESE 1025,0 31 0,0
07.08.2020 10:00:00 21,9 18,1 19 10 24 13 ESE 1024,8 35 0,0
07.08.2020 09:00:00 20,7 17,5 18 10 26 14 ESE 1024,8 37 0,0
07.08.2020 08:00:00 19,9 16,3 20 11 24 13 E 1024,5 38 0,0
07.08.2020 07:00:00 19,0 16,2 18 10 23 12 E 1024,3 37 0,0
07.08.2020 06:00:00 18,2 16,0 17 9 22 12 E 1024,2 9 0,0
07.08.2020 05:00:00 18,1 16,1 16 9 21 12 ESE 1024,0 46 0,0
07.08.2020 04:00:00 18,3 16,5 16 9 21 11 ESE 1024,1 41 0,0
07.08.2020 03:00:00 18,4 16,4 16 9 22 12 ESE 1024,1 46 0,0
07.08.2020 02:00:00 18,6 16,4 19 10 23 12 ESE 1024,2 36 0,0
07.08.2020 01:00:00 18,8 16,6 17 9 21 11 ESE 1024,1 38 0,0
07.08.2020 00:00:00 19,2 17,0 16 9 20 11 ESE 1024,0 42 0,0
06.08.2020 23:00:00 19,3 16,7 16 9 20 11 ESE 1023,7 46 0,0
06.08.2020 22:00:00 19,4 16,4 16 9 21 11 ESE 1023,3 38 0,0
06.08.2020 21:00:00 19,6 16,4 17 9 22 12 ESE 1023,2 40 0,0
06.08.2020 20:00:00 20,5 16,1 16 9 23 12 ESE 1022,9 41 0,0
06.08.2020 19:00:00 21,1 16,5 18 10 24 13 SE 1022,6 43 0,0
06.08.2020 18:00:00 22,2 16,5 18 10 23 13 SE 1022,5 36 0,0
06.08.2020 17:00:00 22,8 17,5 18 10 24 13 ESE 1022,6 26 0,0
06.08.2020 16:00:00 22,6 17,5 19 11 23 13 SE 1022,6 10 0,0
06.08.2020 15:00:00 23,1 16,9 18 10 22 12 ESE 1022,8 32 0,0
06.08.2020 14:00:00 23,0 17,0 14 8 19 10 ESE 1022,8 32 0,0
06.08.2020 13:00:00 23,1 15,9 13 7 19 10 SE 1022,7 38 0,0
06.08.2020 12:00:00 22,9 16,2 15 8 18 10 SE 1022,5 32 0,0
06.08.2020 11:00:00 22,2 15,5 12 7 17 9 SSE 1022,2 36 0,0
06.08.2020 10:00:00 21,3 16,5 13 7 19 11 SSE 1021,7 46 0,0
06.08.2020 09:00:00 20,3 17,1 13 7 16 9 SSE 1021,4 46 0,0
06.08.2020 08:00:00 18,9 17,2 10 5 13 7 SSE 1020,9 46 0,0
06.08.2020 07:00:00 17,6 16,8 13 7 16 9 S 1020,5 36 0,0
06.08.2020 06:00:00 16,9 16,3 4 2 8 5 S 1020,1 12 0,0
06.08.2020 05:00:00 16,3 15,3 7 4 13 7 S 1019,8 19 0,0
06.08.2020 04:00:00 16,6 15,6 9 5 11 6 SSE 1019,6 24 0,0
06.08.2020 03:00:00 16,6 15,5 6 3 9 5 SE 1019,3 27 0,0
06.08.2020 02:00:00 17,1 15,1 9 5 16 8 SSW 1018,9 38 0,0
06.08.2020 01:00:00 17,2 15,0 11 6 18 10 S 1018,8 50 0,0
06.08.2020 00:00:00 18,3 14,8 16 9 20 11 S 1018,5 50 0,0
05.08.2020 23:00:00 19,4 15,3 16 8 24 13 S 1018,1 48 0,0
05.08.2020 22:00:00 18,6 14,9 20 11 25 13 S 1017,8 39 0,0
05.08.2020 21:00:00 18,8 15,1 19 10 27 15 S 1017,4 45 0,0
05.08.2020 20:00:00 19,7 14,7 22 12 30 16 SSE 1016,8 50 0,0
05.08.2020 19:00:00 20,3 14,9 22 12 28 15 SSE 1016,4 43 0,0
05.08.2020 18:00:00 20,6 14,9 21 11 29 16 SSE 1016,5 46 0,0
05.08.2020 17:00:00 22,2 14,6 23 12 30 16 S 1016,3 42 0,0
05.08.2020 16:00:00 22,7 14,8 23 13 32 17 S 1016,2 38 0,0
05.08.2020 15:00:00 22,4 14,8 24 13 34 18 S 1016,4 38 0,0
05.08.2020 14:00:00 23,6 14,9 27 14 36 20 S 1016,3 38 0,0
05.08.2020 13:00:00 22,0 15,4 30 16 35 19 S 1016,4 32 0,0
05.08.2020 12:00:00 21,0 14,9 28 15 34 19 S 1016,3 42 0,0
05.08.2020 11:00:00 19,9 13,8 26 14 35 19 S 1016,6 44 0,0
05.08.2020 10:00:00 18,5 12,7 27 14 34 18 S 1016,6 50 0,0
05.08.2020 09:00:00 18,0 13,7 23 12 29 16 S 1016,8 50 0,0
05.08.2020 08:00:00 16,8 12,3 20 11 28 15 SSW 1016,6 50 0,0
05.08.2020 07:00:00 16,6 11,1 19 11 25 13 SSW 1016,2 50 0,0
05.08.2020 06:00:00 15,4 11,2 11 6 18 10 SSW 1016,0 50 0,0
05.08.2020 05:00:00 15,6 10,8 14 7 18 10 WSW 1016,1 50 0,0
05.08.2020 04:00:00 15,6 10,1 16 8 25 14 W 1015,8 50 0,0
05.08.2020 03:00:00 15,8 10,8 23 12 29 16 W 1016,0 50 0,0
05.08.2020 02:00:00 16,2 10,3 24 13 29 16 W 1015,7 50 0,0
05.08.2020 01:00:00 16,8 10,0 23 12 30 16 W 1015,5 50 0,0
05.08.2020 00:00:00 17,3 12,0 24 13 33 18 WSW 1015,5 50 0,0
04.08.2020 23:00:00 17,4 12,3 28 15 36 19 WSW 1015,3 50 0,0
04.08.2020 22:00:00 17,8 11,8 28 15 32 18 WSW 1015,1 45 0,0
04.08.2020 21:00:00 18,2 11,0 28 15 34 19 W 1014,8 50 0,0
04.08.2020 20:00:00 18,9 11,7 26 14 32 18 WSW 1014,6 50 0,0
04.08.2020 19:00:00 18,1 10,7 14 8 17 9 SSW 1014,3 50 0,0
04.08.2020 18:00:00 19,9 9,5 9 5 15 8 SW 1014,1 39 0,0
04.08.2020 17:00:00 20,5 10,3 10 6 15 8 WSW 1014,1 48 0,0
04.08.2020 16:00:00 21,3 10,2 10 6 18 10 SW 1014,2 36 0,0
04.08.2020 15:00:00 20,9 10,7 11 6 20 11 SW 1014,1 41 0,0
04.08.2020 14:00:00 20,0 9,0 13 7 17 9 WNW 1014,0 38 0,0
04.08.2020 13:00:00 19,4 9,9 13 7 22 12 WNW 1014,2 39 0,0
04.08.2020 12:00:00 18,3 10,6 19 10 - - WNW 1013,8 35 0,0
04.08.2020 11:00:00 17,3 10,7 18 10 26 14 WNW 1014,0 37 0,0
04.08.2020 10:00:00 16,5 11,4 21 11 26 14 NW 1013,8 49 0,0
04.08.2020 09:00:00 16,0 11,0 18 10 27 15 NW 1013,4 46 0,0
04.08.2020 08:00:00 15,7 10,7 21 11 31 17 NNW 1013,2 48 0,0
04.08.2020 07:00:00 15,1 10,7 24 13 29 16 NNW 1012,8 50 0,0
04.08.2020 06:00:00 14,9 10,5 25 13 33 18 NNW 1012,6 46 0,0
04.08.2020 05:00:00 15,1 10,5 26 14 31 17 NNW 1012,5 50 0,0
04.08.2020 04:00:00 15,6 10,6 26 14 32 17 NNW 1012,4 50 0,0
04.08.2020 03:00:00 16,2 11,6 26 14 32 18 NNW 1012,2 50 0,0
04.08.2020 02:00:00 16,8 11,5 15 8 19 10 NW 1012,1 50 0,0
04.08.2020 01:00:00 14,5 10,9 6 3 9 5 WNW 1012,2 50 0,0
04.08.2020 00:00:00 16,1 10,8 10 5 19 10 N 1011,6 50 0,0
03.08.2020 23:00:00 16,7 10,8 16 9 20 11 NNW 1011,4 50 0,0
03.08.2020 22:00:00 16,7 11,0 16 8 20 11 N 1011,4 50 0,0
03.08.2020 21:00:00 16,4 10,3 11 6 19 10 N 1011,2 50 0,0
03.08.2020 20:00:00 18,3 9,6 14 8 19 10 NNE 1010,9 50 0,0
03.08.2020 19:00:00 18,7 10,5 16 9 27 14 NNE 1010,8 50 0,0
03.08.2020 18:00:00 19,9 9,8 21 11 24 13 NNW 1010,7 44 0,0
03.08.2020 17:00:00 20,3 10,1 18 10 22 12 NNW 1011,0 42 0,0
03.08.2020 16:00:00 20,3 10,4 17 9 21 11 NW 1011,3 44 0,0
03.08.2020 15:00:00 19,7 10,7 12 7 21 11 WNW 1011,3 38 0,0
03.08.2020 14:00:00 20,0 11,2 12 7 17 9 WNW 1011,6 36 0,0
03.08.2020 13:00:00 18,6 11,2 13 7 19 11 WNW 1011,9 44 0,0
03.08.2020 12:00:00 18,7 11,5 14 7 18 10 WNW 1012,0 38 0,0
03.08.2020 11:00:00 17,3 12,4 14 8 23 13 WNW 1012,1 46 0,0
03.08.2020 10:00:00 16,7 12,4 18 10 27 15 NW 1011,9 44 0,0
03.08.2020 09:00:00 16,3 12,5 24 13 29 15 WNW 1011,7 40 0,0
03.08.2020 08:00:00 15,9 12,3 21 12 32 18 NW 1011,6 37 0,0
03.08.2020 07:00:00 15,3 12,2 27 15 37 20 NNW 1011,7 34 0,0
03.08.2020 06:00:00 15,4 12,3 34 19 39 21 NNW 1011,3 36 0,0
03.08.2020 05:00:00 16,2 13,7 32 17 37 20 NW 1011,0 43 0,0
03.08.2020 04:00:00 16,6 14,8 27 14 32 17 NW 1010,8 43 0,0
03.08.2020 03:00:00 17,1 14,6 30 16 36 19 WNW 1010,8 45 0,0
03.08.2020 02:00:00 17,7 16,4 18 10 26 14 W 1010,9 26 0,0
03.08.2020 01:00:00 17,7 16,2 25 13 36 20 W 1010,9 19 0,0
03.08.2020 00:00:00 18,5 15,6 9 5 18 10 WSW 1010,8 50 0,0
02.08.2020 23:00:00 19,0 15,5 15 8 21 11 W 1010,7 17 0,0
02.08.2020 22:00:00 18,6 16,2 15 8 19 10 WSW 1010,7 50 0,0

tt = Température de l'air
td = dewpoint
ff = Vitesse du vent
fx = gusts
dd = Direction du vent
ppp = reduced air pressure
vv = visibility
rr = Quantités de précipitations

stations d'obs. à proximité